Location: Calvin Observatory
(42.9309°N, 85.5886°W)
Time: 18:19:36
(UTC-05:00)

ISS - Visible Passes

Search period start: 17 December 2017 00:00
Search period end: 27 December 2017 00:00
Orbit: 402 x 406 km, 51.6° (Epoch: 18 December)

Date Brightness Start Highest point End Pass type
(mag) Time Alt. Az. Time Alt. Az. Time Alt. Az.
17 Dec -1.9 17:58:40 10° WNW 18:01:40 33° SW 18:04:39 10° SSE visible
19 Dec -0.5 17:51:25 10° W 17:53:21 15° SW 17:55:18 10° SSW visible
26 Dec -0.9 06:53:59 10° S 06:56:26 19° SE 06:58:52 10° E visible
